Weather Roundup
Issued by NWS

Home | Current Version | Previous Version | Graphics & Text | Print | Product List | Glossary Off
Versions: 1 2 3 4 5 6 7 8 9 10 11 12 13 14 15 16 17 18 19 20 21 22 23 24 25 26 27 28 29 30 31 32 33 34 35 36 37 38 39 40 41 42 43 44 45 46 47 48 49 50

000
NZUS93 KARX 300959
HRRWXR

CURRENT HOURLY OBSERVATIONS ACROSS
MUCH OF THE UPPER MISSISSIPPI VALLEY
NATIONAL WEATHER SERVICE LA CROSSE WI
400 AM CST FRI JAN 30 2015


...SOUTHEAST MINNESOTA...


CITY           SKY/WX    TMP DP  RH WIND       PRES   REMARKS
ROCHESTER      PTCLDY    10   3  73 N6        30.49F WCI   0
ROCHESTER/MAYO FAIR      13   6  73 CALM      30.51F
WINONA         CLEAR     14   9  79 NW3       30.55F
AUSTIN         CLEAR     12   7  79 N3        30.50F
ALBERT LEA     CLEAR     12  10  92 NW3       30.51S
DODGE CENTER   PTCLDY    10   7  85 CALM      30.49F
PRESTON        CLEAR     10   4  80 N7        30.49F WCI  -2
OWATONNA       CLEAR     12   9  85 CALM      30.51F
FARIBAULT      CLEAR     10   7  85 CALM      30.52F
$$

...ELSEWHERE IN MINNESOTA...


CITY           SKY/WX    TMP DP  RH WIND       PRES   REMARKS
MINNEAPOLIS    MOCLDY    13   5  70 N6        30.54F WCI   4
INTNL FALLS    MOCLDY    -9 -13  83 CALM      30.47S
DULUTH         PTCLDY    -1  -6  79 NW7       30.43F WCI -14
RED WING       CLEAR      9   1  72 CALM      30.54S
REDWOOD FALLS  CLEAR     12   7  80 W3        30.53F
MANKATO        CLEAR     12   7  79 CALM      30.53S
WORTHINGTON    CLOUDY    14  10  85 CALM      30.49S
FAIRMONT       CLEAR     12   7  79 MISG      30.51S
$$

...SOUTHWEST WISCONSIN...


CITY           SKY/WX    TMP DP  RH WIND       PRES   REMARKS
LA CROSSE      CLEAR     13   6  74 NW6       30.54  WCI   4
PRAIRIE DU CHI CLEAR     19   9  67 NW8       30.52R WCI   8
BOSCOBEL       CLEAR     18   7  62 NW12G18   30.52R WCI   5
LONE ROCK      MOCLDY    19   9  65 N5        30.48R WCI  12
PLATTEVILLE    CLEAR     18  10  69 NW7       30.45S WCI   9
FORT MC COY    CLEAR     12   5  73 NW7       30.51S WCI   2
VIROQUA        FAIR      13   7  77 NW10      30.46R WCI  -1
WIS DELLS      NOT AVBL
$$

...ELSEWHERE IN WISCONSIN...


CITY           SKY/WX    TMP DP  RH WIND       PRES   REMARKS
MILWAUKEE      PTCLDY    21   8  57 NW12G22   30.42R WCI   9
MADISON        CLEAR     17   7  64 NW7       30.45R WCI   8
GREEN BAY      CLOUDY    18   7  62 N10       30.44R WCI   6
EAU CLAIRE     NOT AVBL
BLACK RVR FLS  FAIR      11   3  71 NW5       30.52R WCI   3
MEDFORD        CLOUDY    12   5  73 NW7       30.42S WCI   1
WAUSAU         CLOUDY    14   4  64 NW9       30.42R WCI   2
WIS RAPIDS     CLOUDY    16   5  62 N8        30.47R WCI   5
MARSHFIELD     CLOUDY    13   4  67 NW12      30.45R WCI  -1
RICE LAKE      PTCLDY     4  -1  81 CALM      30.52F
$$

...NORTHEAST IOWA...


CITY           SKY/WX    TMP DP  RH WIND       PRES   REMARKS
DECORAH        CLEAR     12   7  79 N10       30.49S WCI  -1
MASON CITY     CLEAR     13  10  88 NW8       30.53S WCI   2
CHARLES CITY   CLEAR     16   9  73 N12       30.52F WCI   3
OELWEIN        CLEAR     14  10  85 N8        30.52R WCI   3
$$

...ELSEWHERE IN IOWA...


CITY           SKY/WX    TMP DP  RH WIND       PRES   REMARKS
DES MOINES     CLEAR     20  13  74 NE6       30.53F WCI  12
IOWA CITY      CLEAR     22  14  71 NW7       30.53R WCI  13
FORT DODGE     CLEAR     16  10  79 CALM      30.54S
$$

...NORTHERN ILLINOIS...


CITY           SKY/WX    TMP DP  RH WIND       PRES   REMARKS
CHICAGO-OHARE  CLEAR     23   9  55 N14       30.41R WCI  11
CHICAGO-MIDWAY PTCLDY    26  10  50 N12       30.42R WCI  16
MOLINE         CLEAR     22  12  65 NW10      30.49R WCI  11
ROCKFORD       CLEAR     23  12  62 N12G21    30.46R WCI  12
PEORIA         CLEAR     26  17  68 NW7       30.46R WCI  18
$$

NOTE: "FAIR" INDICATES FEW OR NO CLOUDS BELOW 12,000 FEET WITH NO
SIGNIFICANT WEATHER AND/OR OBSTRUCTIONS TO VISIBILITY. WIND
SPEEDS ARE IN MILES-PER-HOUR.



USA.gov is the U.S. government's official web portal to all federal, state and local government web resources and services.